Lid_Strength_Index
8 8 8 8 8 8 7 7 6 6 7 7 8 8 8 8 8 10 12 12 12 14 14 13 12 14 15 15 17 14 13 12 13 15 13 13 14 13 15 13 14 16 15 16 15 17 19 9 10 14 10 7 7 7
8 8 8 8 8 8 7 7 6 6 7 7 8 8 8 8 8 8 13 11 10 12 15 13 11 10 10 11 13 13 13 13 12 15 14 14 16 14 14 19 12 16 13 16 14 15 11 8 8 7 6 8 8 8
7 8 8 8 8 8 7 7 6 6 6 7 7 8 8 8 8 8 11 10 11 13 16 16 14 11 10 9 9 14 13 10 11 8 9 11 13 11 16 14 13 11 10 12 11 11 9 8 7 6 6 7 8 9
7 7 8 8 8 8 7 6 6 6 6 6 7 7 8 7 8 8 10 11 11 13 17 16 10 10 8 9 9 8 9 9 8 7 9 10 12 9 12 13 13 10 10 12 12 10 8 7 7 6 7 8 8 7
7 7 8 8 8 8 7 7 6 6 6 6 7 7 7 7 8 9 11 10 10 14 16 15 11 9 8 8 8 8 9 10 9 9 10 11 11 11 12 10 11 10 11 12 13 9 9 8 6 7 9 9 8 8
7 7 8 8 8 8 7 7 6 6 6 6 7 7 7 7 8 11 14 10 11 10 13 16 12 11 10 8 7 8 8 9 8 8 9 8 7 9 12 13 9 8 7 7 8 6 6 6 7 7 9 9 7 8
7 7 8 8 8 8 8 7 6 6 7 7 7 7 7 7 9 13 14 11 9 9 12 13 15 12 10 8 7 7 8 8 8 8 9 8 8 8 11 13 9 7 6 6 5 6 8 8 9 8 8 8 7 7
7 7 7 7 8 8 7 6 6 7 7 7 7 7 7 7 8 11 9 8 8 10 11 15 15 13 10 11 11 6 7 6 7 8 8 9 8 9 12 9 8 7 6 6 6 6 8 8 8 8 8 8 8 8
6 6 7 8 8 8 7 6 6 7 8 7 7 6 8 11 11 9 6 6 8 9 12 12 14 15 10 11 10 9 6 10 7 9 9 9 10 12 10 10 9 8 7 7 6 8 8 9 9 9 9 9 9 9
6 6 7 7 7 7 7 6 8 8 8 7 8 10 10 9 7 6 8 10 10 9 10 13 11 14 12 11 9 9 7 10 12 10 8 11 12 9 9 9 8 7 5 6 9 10 10 10 10 9 10 10 10 11
6 6 7 7 7 7 6 8 9 8 9 12 13 13 12 9 11 13 15 12 12 13 12 11 12 13 11 11 11 7 10 9 13 11 11 12 13 11 9 9 7 5 5 6 8 9 9 9 9 9 10 12 12 12
6 6 7 7 7 6 7 8 8 10 12 12 12 11 11 12 14 16 16 12 13 14 11 13 14 12 12 10 9 8 11 10 14 8 11 14 11 10 11 9 7 6 6 7 8 8 8 8 8 9 10 12 12 11
6 6 7 7 7 6 7 8 8 8 9 9 12 13 14 14 18 16 17 17 17 13 12 13 14 13 13 10 8 9 12 13 8 12 13 12 11 10 10 9 8 6 5 6 8 7 8 9 9 10 11 11 12 12
6 7 7 6 6 7 8 8 8 8 10 12 13 19 16 16 16 16 17 16 14 13 13 15 15 15 13 12 9 12 10 10 13 17 15 12 12 11 10 10 8 8 5 7 8 8 9 9 10 10 10 11 12 13
6 7 6 6 7 7 8 8 8 9 11 13 14 19 16 14 15 15 14 14 13 13 14 15 13 12 11 10 10 11 13 16 15 17 13 12 11 10 10 10 9 7 5 5 9 9 9 9 10 11 10 11 12 12
6 6 7 6 7 8 8 8 9 10 11 12 14 16 16 16 16 15 15 14 12 13 14 13 14 14 13 12 16 16 18 17 16 14 12 11 11 11 10 10 8 7 6 5 8 9 9 9 10 10 10 11 12 12
7 9 7 7 8 8 8 10 10 12 13 14 16 14 15 16 16 15 14 13 12 13 15 15 15 15 13 18 16 13 16 14 12 11 11 11 11 11 10 9 8 7 6 5 8 9 9 9 9 11 12 11 11 11
10 8 7 8 8 9 10 10 11 12 14 14 16 15 14 15 14 13 12 12 12 13 14 14 14 16 15 19 19 13 11 11 10 10 10 10 10 10 9 9 8 8 6 5 7 8 9 10 10 11 11 11 12 12
8 8 8 8 9 10 11 11 11 14 14 14 14 13 13 13 13 13 13 12 12 12 13 14 15 19 17 13 12 12 11 11 11 10 10 9 9 9 9 9 8 8 7 7 6 8 9 10 10 10 11 11 12 12
7 7 7 8 9 11 11 12 10 14 15 14 13 13 13 14 14 14 14 14 14 14 14 15 15 14 12 10 8 9 10 9 10 10 11 10 9 9 9 9 9 8 8 8 8 8 7 9 10 10 11 12 12 13
9 8 7 10 11 10 11 13 14 13 14 14 12 13 14 14 15 15 15 14 15 15 16 14 13 10 9 7 9 10 9 8 9 9 10 11 10 9 10 9 9 9 9 10 10 9 8 7 9 10 10 11 12 12
10 8 10 10 11 11 12 12 13 13 14 13 13 13 15 15 15 16 15 16 16 13 13 11 10 9 9 8 10 10 10 8 8 8 8 9 11 11 10 10 10 10 10 10 10 10 8 7 7 9 10 11 11 11
8 8 10 10 12 14 15 11 14 14 15 14 13 14 15 15 15 14 17 14 14 12 10 10 9 9 10 8 10 11 10 8 8 8 8 9 9 9 10 10 10 11 11 11 10 10 9 9 7 7 8 9 10 11
8 10 12 13 14 16 12 14 13 14 14 15 15 15 14 15 14 16 17 14 16 13 11 11 10 11 12 11 12 12 12 10 8 7 9 9 10 10 10 10 10 10 11 11 10 10 10 9 9 7 7 8 9 11
14 14 14 18 13 14 15 14 14 15 15 15 14 15 15 13 17 17 16 15 17 17 11 10 11 13 13 12 12 13 12 12 10 9 10 11 10 10 11 10 10 11 11 12 12 11 11 10 10 9 8 7 8 9
18 15 16 15 15 14 14 15 15 15 14 15 14 13 14 15 16 16 16 16 16 15 12 14 14 14 13 12 13 14 13 12 12 11 11 12 11 12 13 12 12 12 11 11 12 12 12 11 11 11 10 9 9 9
19 17 14 11 12 12 14 13 13 15 15 15 14 14 15 16 16 15 14 13 14 13 11 10 11 11 12 13 12 12 12 12 12 11 11 12 12 11 13 13 13 11 11 11 11 12 13 12 12 12 11 10 9 8
14 13 15 14 13 13 14 14 14 14 14 12 12 14 15 16 16 13 12 12 11 11 11 10 10 10 11 12 13 13 13 13 11 11 12 12 12 11 12 12 11 11 11 11 11 12 12 13 13 13 12 11 10 8
14 13 12 14 13 14 14 14 13 12 11 11 13 14 14 13 14 15 12 11 11 11 12 11 11 11 11 12 12 12 12 14 13 14 14 15 14 13 12 12 11 11 12 12 12 12 13 14 12 12 11 11 9 8
14 12 14 13 14 14 12 11 12 12 12 12 12 13 14 14 13 11 11 11 11 12 11 10 11 12 12 12 13 12 12 12 14 14 16 16 15 12 12 12 12 11 12 13 13 13 14 13 13 12 12 12 12 12
12 12 13 13 13 12 12 11 11 11 12 13 12 13 14 13 11 11 12 12 11 11 11 12 12 11 11 12 12 12 13 12 12 12 12 13 13 12 12 11 12 11 11 12 13 14 15 15 14 15 14 14 13 13
13 13 13 14 13 11 10 11 12 13 12 13 13 12 12 12 13 11 10 10 10 11 11 11 11 11 11 10 11 11 11 11 10 10 11 11 11 11 12 12 11 10 11 12 13 14 15 16 16 16 15 15 14 14
13 12 12 12 12 12 11 11 12 13 12 12 12 11 11 12 14 12 9 10 10 11 11 11 11 10 10 10 10 10 11 10 11 11 11 11 12 12 12 12 11 11 11 12 12 13 15 16 16 17 17 17 16 14